• In Sweden
  • List of Countries
  • For 7 days
  • Water Temperature
  • Satellite Maps
  • Weather Map
  • Weather Widgets
  • user-avatar
    Login

    Hourly Weather Svezevo

    Today, 15 November, Thursday

    Time Temperature Precipitation Wind Pressure Humidity
    00:00 -4°C° 0 mm 3 mps 757 mmHg 80%
    01:00 -3°C° 0 mm 2 mps 758 mmHg 81%
    02:00 -3°C° 0 mm 2 mps 758 mmHg 83%
    03:00 -3°C° 0 mm 2 mps 758 mmHg 83%
    04:00 -3°C° 0 mm 2 mps 759 mmHg 83%
    05:00 -3°C° 0 mm 2 mps 759 mmHg 84%
    06:00 -3°C° 0 mm 2 mps 760 mmHg 83%
    07:00 -3°C° 0 mm 2 mps 760 mmHg 82%
    08:00 -2°C° 0 mm 2 mps 761 mmHg 81%
    09:00 -2°C° 0 mm 2 mps 761 mmHg 78%
    10:00 -1°C° 0 mm 2 mps 762 mmHg 75%
    11:00 -1°C° 0 mm 2 mps 762 mmHg 71%
    12:00 -1°C° 0 mm 2 mps 762 mmHg 71%
    13:00 -1°C° 0 mm 2 mps 762 mmHg 72%
    14:00 +1°C° 0 mm 1 mps 763 mmHg 72%
    15:00 +1°C° 0 mm 1 mps 763 mmHg 73%
    16:00 0°C° 0 mm 1 mps 764 mmHg 75%
    17:00 0°C° 0 mm 1 mps 764 mmHg 76%
    18:00 0°C° 0 mm 1 mps 764 mmHg 77%
    19:00 -1°C° 0 mm 1 mps 765 mmHg 77%
    20:00 -1°C° 0 mm 1 mps 765 mmHg 78%
    21:00 -1°C° 0 mm 1 mps 765 mmHg 78%
    22:00 -1°C° 0 mm 1 mps 765 mmHg 79%
    23:00 -1°C° 0 mm 1 mps 766 mmHg 79%

    Tomorrow, 16 November, Friday

    Time Temperature Precipitation Wind Pressure Humidity
    00:00 -1°C° 0 mm 1 mps 766 mmHg 80%
    01:00 -1°C° 0 mm 1 mps 766 mmHg 81%
    02:00 -1°C° 0 mm 1 mps 767 mmHg 81%
    03:00 -1°C° 0 mm 1 mps 767 mmHg 82%
    04:00 -1°C° 0 mm 1 mps 767 mmHg 83%
    05:00 -1°C° 0 mm 1 mps 767 mmHg 84%
    06:00 -1°C° 0 mm 1 mps 767 mmHg 84%
    07:00 -3°C° 0 mm 2 mps 768 mmHg 85%
    08:00 -3°C° 0 mm 2 mps 768 mmHg 85%
    09:00 -3°C° 0 mm 2 mps 768 mmHg 82%
    10:00 -2°C° 0 mm 2 mps 768 mmHg 78%
    11:00 -1°C° 0 mm 2 mps 768 mmHg 75%
    12:00 -1°C° 0 mm 2 mps 768 mmHg 76%
    13:00 -1°C° 0 mm 2 mps 768 mmHg 77%
    14:00 -1°C° 0 mm 2 mps 768 mmHg 79%
    15:00 -2°C° 0 mm 2 mps 768 mmHg 81%
    16:00 -2°C° 0 mm 2 mps 768 mmHg 84%
    17:00 -3°C° 0 mm 2 mps 768 mmHg 87%
    18:00 -3°C° 0 mm 2 mps 768 mmHg 88%
    19:00 -3°C° 0 mm 2 mps 767 mmHg 89%
    20:00 -3°C° 0 mm 2 mps 767 mmHg 90%
    21:00 -3°C° 0 mm 2 mps 767 mmHg 90%
    22:00 -4°C° 0 mm 3 mps 767 mmHg 91%
    23:00 -4°C° 0 mm 3 mps 767 mmHg 92%

    Day after tomorrow, 17 November, Saturday

    Time Temperature Precipitation Wind Pressure Humidity
    00:00 -4°C° 0 mm 3 mps 767 mmHg 92%
    01:00 -4°C° 0 mm 3 mps 767 mmHg 92%
    02:00 -4°C° 0 mm 3 mps 766 mmHg 93%
    03:00 -4°C° 0 mm 3 mps 766 mmHg 92%
    04:00 -4°C° 0 mm 3 mps 765 mmHg 92%
    05:00 -2°C° 0 mm 3 mps 765 mmHg 92%
    06:00 -3°C° 0 mm 4 mps 764 mmHg 91%
    07:00 -3°C° 0 mm 4 mps 764 mmHg 91%
    08:00 -3°C° 0 mm 4 mps 763 mmHg 90%
    09:00 -3°C° 0.1 mm 4 mps 762 mmHg 88%
    10:00 -2°C° 0.1 mm 4 mps 762 mmHg 86%
    11:00 -1°C° 0.1 mm 4 mps 761 mmHg 84%
    12:00 -1°C° 0.4 mm 4 mps 760 mmHg 86%
    13:00 -1°C° 0.4 mm 4 mps 760 mmHg 87%
    14:00 -1°C° 0.4 mm 4 mps 759 mmHg 89%
    15:00 -1°C° 0.3 mm 4 mps 758 mmHg 89%
    16:00 -1°C° 0.3 mm 5 mps 757 mmHg 90%
    17:00 -1°C° 0.3 mm 5 mps 757 mmHg 90%
    18:00 -1°C° 0.1 mm 5 mps 756 mmHg 91%
    19:00 -1°C° 0.1 mm 4 mps 755 mmHg 92%
    20:00 -1°C° 0.1 mm 4 mps 754 mmHg 92%
    21:00 0°C° 0.1 mm 4 mps 754 mmHg 93%
    22:00 0°C° 0.1 mm 4 mps 753 mmHg 94%
    23:00 0°C° 0.1 mm 4 mps 752 mmHg 94%

    18 November, Sunday

    Time Temperature Precipitation Wind Pressure Humidity
    00:00 0°C° 0.2 mm 4 mps 752 mmHg 95%
    01:00 +1°C° 0.2 mm 3 mps 751 mmHg 95%
    02:00 +1°C° 0.2 mm 3 mps 751 mmHg 95%
    03:00 +1°C° 0.3 mm 3 mps 750 mmHg 96%
    04:00 +1°C° 0.3 mm 3 mps 750 mmHg 96%
    05:00 +1°C° 0.3 mm 3 mps 749 mmHg 96%
    06:00 0°C° 0.1 mm 3 mps 749 mmHg 96%
    07:00 0°C° 0.1 mm 3 mps 748 mmHg 95%
    08:00 +1°C° 0.1 mm 2 mps 748 mmHg 95%
    09:00 +2°C° 0.3 mm 2 mps 748 mmHg 95%
    10:00 +2°C° 0.3 mm 2 mps 748 mmHg 95%
    11:00 +2°C° 0.3 mm 2 mps 748 mmHg 95%
    12:00 +2°C° 0.2 mm 2 mps 749 mmHg 95%
    13:00 +2°C° 0.2 mm 2 mps 749 mmHg 96%
    14:00 +2°C° 0.2 mm 2 mps 749 mmHg 97%
    15:00 +2°C° 0.1 mm 2 mps 750 mmHg 96%
    16:00 +1°C° 0.1 mm 3 mps 750 mmHg 96%
    17:00 0°C° 0.1 mm 3 mps 751 mmHg 95%
    18:00 0°C° 0.3 mm 3 mps 751 mmHg 95%
    19:00 -1°C° 0.3 mm 4 mps 752 mmHg 94%
    20:00 -1°C° 0.3 mm 4 mps 752 mmHg 94%
    21:00 -1°C° 0.3 mm 4 mps 753 mmHg 93%
    22:00 -1°C° 0.3 mm 4 mps 753 mmHg 93%
    23:00 -1°C° 0.3 mm 4 mps 754 mmHg 93%

    19 November, Monday

    Time Temperature Precipitation Wind Pressure Humidity
    00:00 -1°C° 0.2 mm 4 mps 754 mmHg 93%
    01:00 -1°C° 0.2 mm 4 mps 754 mmHg 92%
    02:00 -1°C° 0.2 mm 4 mps 755 mmHg 92%
    03:00 -1°C° 0.1 mm 4 mps 755 mmHg 92%
    04:00 -1°C° 0.1 mm 4 mps 756 mmHg 92%
    05:00 -1°C° 0.1 mm 4 mps 756 mmHg 92%
    06:00 -1°C° 0.1 mm 4 mps 756 mmHg 92%
    07:00 -1°C° 0.1 mm 4 mps 757 mmHg 92%
    08:00 -1°C° 0.1 mm 4 mps 757 mmHg 92%
    09:00 -1°C° 0 mm 4 mps 758 mmHg 90%
    10:00 -1°C° 0 mm 4 mps 758 mmHg 89%
    11:00 -1°C° 0 mm 4 mps 759 mmHg 88%
    12:00 -1°C° 0 mm 4 mps 759 mmHg 88%
    13:00 0°C° 0 mm 3 mps 759 mmHg 89%
    14:00 0°C° 0 mm 3 mps 759 mmHg 89%
    15:00 0°C° 0 mm 3 mps 759 mmHg 91%
    16:00 -1°C° 0 mm 3 mps 760 mmHg 92%
    17:00 -1°C° 0 mm 3 mps 760 mmHg 93%
    18:00 -1°C° 0 mm 3 mps 760 mmHg 93%
    19:00 -1°C° 0 mm 3 mps 760 mmHg 94%
    20:00 -1°C° 0 mm 3 mps 760 mmHg 94%
    21:00 -2°C° 0 mm 2 mps 760 mmHg 94%
    22:00 -2°C° 0 mm 2 mps 760 mmHg 94%
    23:00 -2°C° 0 mm 2 mps 760 mmHg 94%

    20 November, Tuesday

    Time Temperature Precipitation Wind Pressure Humidity
    00:00 -3°C° 0 mm 2 mps 760 mmHg 95%
    01:00 -3°C° 0 mm 2 mps 760 mmHg 95%
    02:00 -3°C° 0 mm 2 mps 760 mmHg 96%
    03:00 -4°C° 0 mm 2 mps 760 mmHg 96%
    04:00 -4°C° 0 mm 2 mps 760 mmHg 96%
    05:00 -4°C° 0 mm 2 mps 759 mmHg 96%
    06:00 -2°C° 0 mm 1 mps 759 mmHg 96%
    07:00 -2°C° 0 mm 1 mps 759 mmHg 95%
    08:00 -2°C° 0 mm 1 mps 759 mmHg 95%
    09:00 -2°C° 0 mm 1 mps 759 mmHg 92%
    10:00 -1°C° 0 mm 1 mps 758 mmHg 89%
    11:00 0°C° 0 mm 1 mps 758 mmHg 86%
    12:00 -1°C° 0 mm 1 mps 758 mmHg 87%
    13:00 -2°C° 0 mm 0 mps 757 mmHg 88%
    14:00 -2°C° 0 mm 0 mps 756 mmHg 89%
    15:00 -2°C° 0 mm 0 mps 756 mmHg 90%
    16:00 -3°C° 0 mm 0 mps 756 mmHg 91%
    17:00 -3°C° 0 mm 0 mps 755 mmHg 93%
    18:00 -3°C° 0 mm 0 mps 755 mmHg 93%
    19:00 -4°C° 0 mm 0 mps 755 mmHg 93%
    20:00 -3°C° 0 mm 1 mps 754 mmHg 93%
    21:00 -2°C° 0 mm 1 mps 754 mmHg 94%
    22:00 -2°C° 0 mm 1 mps 754 mmHg 94%
    23:00 -2°C° 0 mm 1 mps 754 mmHg 94%
    Show more